Wind_Speed
28 28 27 26 26 25 24 24 23 23 22 22 21 20 18 17 15 14 14 14 13 12 11 11 12 13 14 13 12 11 11 13 15 16 17 18 20 22 23 24 24 24 25 26 26 27 29 30 30 29 25 20 13 5 2 8 11 11 12 13 13 13 11 11 11 11 10 10 11 12 12 12 13 14 14 13 11 11 12 13 13 14 13 14 14 14 14 15
31 31 30 30 29 28 27 27 26 25 25 24 23 22 21 20 18 17 16 15 15 15 13 12 12 12 13 14 14 11 10 10 12 14 15 16 18 19 21 22 23 23 24 24 25 25 27 28 29 30 28 24 17 10 4 4 9 11 11 11 11 10 9 9 10 9 8 8 10 11 12 13 14 15 14 12 9 9 9 9 9 9 9 9 10 9 9 9
34 33 33 32 32 31 31 30 29 28 27 26 26 25 24 23 21 20 19 18 17 17 16 14 13 13 13 14 15 14 11 9 10 12 13 14 15 17 19 20 22 22 23 23 23 24 25 26 28 29 30 27 21 14 8 3 4 10 11 11 9 8 8 8 8 6 5 7 10 12 12 12 12 11 10 8 7 7 7 7 7 7 7 6 5 4 3 3
36 36 35 35 35 34 34 33 33 32 30 29 29 28 27 26 24 23 22 20 20 19 18 17 15 15 15 15 16 16 13 10 8 10 11 12 13 15 17 18 19 21 22 22 22 23 23 25 26 28 29 29 26 19 12 7 2 6 11 11 10 7 7 8 6 4 5 8 10 11 9 8 7 6 7 7 7 7 7 8 8 8 6 5 4 3 2 1
37 37 37 37 37 37 36 36 35 35 34 33 32 31 30 29 28 27 25 24 23 22 21 20 18 17 16 16 16 17 16 13 9 8 9 10 11 12 14 16 17 19 20 21 21 22 22 23 24 26 28 29 29 24 17 11 6 2 7 10 10 8 7 8 6 4 6 8 8 7 6 6 7 7 7 8 8 8 9 9 8 8 7 6 5 4 3 1
37 37 37 37 37 37 37 37 37 37 37 36 35 34 34 32 32 31 29 28 26 25 24 23 22 20 19 18 18 18 17 16 13 9 9 10 10 10 12 15 16 17 18 19 20 21 21 21 23 24 26 28 29 27 22 15 10 5 2 5 7 7 8 8 6 6 7 7 6 6 6 7 9 9 8 8 8 8 8 8 8 7 7 6 4 3 2 2
39 39 38 38 38 38 37 38 38 38 38 37 37 37 37 36 35 34 33 32 30 28 27 27 25 24 23 21 20 20 19 19 16 13 10 10 9 9 10 12 15 15 16 18 19 20 20 21 21 22 24 26 28 28 25 19 13 7 5 4 5 6 7 7 7 9 9 8 6 6 6 7 9 10 9 9 8 7 6 6 6 5 5 4 2 1 1 3
42 42 41 41 40 40 39 39 38 38 38 38 38 39 39 38 38 37 37 36 34 32 30 30 29 27 26 24 23 22 20 21 19 17 13 10 10 9 9 10 13 14 15 16 17 18 19 20 20 20 22 24 26 27 27 23 17 11 7 6 6 7 8 10 11 12 12 10 7 6 6 7 9 10 9 9 9 7 6 4 3 2 2 1 1 2 3 4
46 46 45 45 44 43 43 42 41 40 39 39 39 39 40 39 40 40 40 39 38 37 35 34 32 31 30 28 26 23 22 23 22 21 17 12 11 11 10 9 11 13 14 15 16 16 17 18 19 19 19 21 22 25 26 24 21 17 12 8 6 7 10 11 13 14 15 13 8 6 6 6 7 7 7 8 8 7 6 3 1 1 2 2 3 3 2 2
50 50 49 49 48 47 46 45 44 43 42 41 41 41 40 40 40 41 41 41 40 40 38 37 36 35 34 33 30 25 24 26 25 24 20 16 14 12 12 11 10 12 13 14 15 15 15 16 17 17 17 17 19 21 23 24 23 21 17 13 8 6 8 11 12 13 14 13 9 7 5 4 4 3 4 4 4 4 4 3 2 3 3 3 3 2 2 2
54 53 53 53 52 51 50 49 48 46 45 44 44 43 43 42 41 42 42 42 41 41 41 40 39 38 37 37 34 29 29 29 28 26 23 19 17 15 14 13 11 11 12 12 13 14 13 13 14 15 15 15 15 17 19 21 22 22 20 17 13 10 8 9 11 12 13 11 8 7 4 2 1 2 4 4 4 4 3 3 2 2 3 2 1 2 4 6
57 57 56 56 56 55 54 53 52 50 49 48 47 47 46 45 44 43 43 43 42 42 42 41 41 41 40 40 36 34 35 33 29 28 25 23 21 18 16 15 14 12 12 12 12 14 13 12 12 12 13 13 13 13 15 17 20 20 20 18 15 14 12 12 13 12 11 9 7 5 3 2 4 6 7 8 8 6 4 2 2 2 1 1 3 6 8 9
61 60 60 60 59 58 58 57 56 54 53 52 51 51 50 49 47 46 45 44 43 43 43 43 43 43 43 42 39 39 41 36 32 30 28 26 25 22 19 17 16 14 13 13 12 13 13 13 11 10 11 12 11 11 11 13 16 17 18 18 16 14 13 15 17 16 14 11 8 5 2 3 5 8 9 9 8 6 5 5 4 4 5 7 9 11 12 13
63 63 63 63 63 62 62 61 60 58 57 56 55 55 54 53 51 50 48 47 46 45 44 44 44 44 44 42 40 43 44 39 34 32 31 30 28 26 23 20 19 17 15 14 14 13 13 14 12 10 9 10 10 9 9 9 11 14 15 16 16 14 14 15 17 17 16 14 11 8 6 3 1 0 1 4 7 8 9 8 7 8 11 13 15 15 17 18
66 66 66 65 65 65 65 65 64 62 60 60 59 59 58 57 56 54 52 50 49 48 46 46 45 45 44 42 42 46 46 41 36 35 35 33 31 30 27 24 22 20 18 16 16 15 13 14 13 12 9 8 9 9 8 7 8 10 12 13 14 14 15 16 16 16 16 14 13 11 9 8 7 7 8 9 10 11 10 10 11 13 15 17 18 17 18 18
67 68 68 68 68 67 67 67 67 66 64 63 63 62 62 61 60 58 57 54 53 52 50 48 47 48 46 43 43 46 46 43 39 38 38 36 34 33 31 28 25 23 22 19 19 18 15 15 15 14 10 8 7 7 7 6 6 6 9 10 11 11 13 16 17 17 15 15 14 13 11 12 12 11 10 10 10 10 9 11 13 15 16 17 16 15 15 15
68 69 69 70 70 69 70 70 69 68 67 66 66 65 65 65 64 62 61 59 57 56 54 52 50 50 49 46 45 45 45 44 41 41 41 40 38 36 34 32 28 25 25 23 22 21 18 17 17 16 13 10 8 7 7 6 5 4 5 7 8 9 10 12 15 16 15 14 14 13 12 12 14 14 13 12 11 10 10 11 14 15 14 12 11 11 12 12
66 68 69 70 71 71 71 72 72 71 70 69 69 68 68 68 67 66 65 63 61 60 58 56 54 53 53 50 47 46 46 45 43 42 43 42 41 39 37 35 31 29 27 26 26 25 22 20 20 19 16 13 11 9 8 7 5 4 2 3 5 5 7 9 12 13 12 11 11 10 9 9 10 12 13 13 13 12 11 11 12 12 10 9 9 10 10 11
62 64 66 67 69 70 71 72 73 73 73 72 72 72 71 70 70 70 69 68 65 64 62 60 57 57 56 54 50 49 49 47 45 43 43 43 43 42 40 37 35 32 30 30 30 29 26 24 24 23 19 16 14 12 10 8 7 5 4 1 2 3 4 6 8 8 7 7 7 6 6 5 6 8 10 11 11 10 10 10 10 10 9 10 10 11 11 11
57 59 61 63 65 66 67 70 71 72 73 73 73 74 74 73 73 72 72 71 70 68 66 63 61 61 60 57 54 52 53 51 48 45 44 45 44 43 42 39 38 36 33 34 34 32 28 27 29 27 23 20 17 14 13 11 9 8 7 5 2 2 2 3 4 4 3 2 2 2 2 2 3 4 7 8 8 8 8 8 8 9 10 11 12 12 12 11
51 54 57 59 61 62 63 66 67 68 70 71 73 74 74 75 75 75 75 75 74 71 69 66 64 66 64 60 57 55 56 56 53 49 47 46 45 44 43 41 40 39 38 38 37 34 30 32 35 31 26 23 20 18 17 14 12 11 9 7 5 3 3 3 3 2 2 1 1 1 2 1 1 3 5 6 7 7 7 8 8 8 9 11 12 12 12 11
46 48 51 53 56 58 60 62 64 65 66 68 69 71 73 74 76 77 77 78 78 75 73 70 67 69 68 63 60 59 60 61 58 53 50 47 46 45 45 43 41 41 41 40 39 36 33 37 40 34 28 26 24 23 21 18 16 15 13 10 9 7 6 6 6 6 5 4 3 3 3 3 3 3 4 5 6 7 7 8 8 8 8 8 9 9 9 8
42 44 46 48 50 52 54 58 60 62 63 65 66 67 69 71 73 75 77 79 82 79 75 73 71 71 71 68 64 62 64 65 62 57 54 52 49 47 47 45 43 42 42 41 41 39 38 42 44 36 30 29 28 27 25 22 20 19 17 14 12 12 9 8 8 9 8 7 6 5 5 4 4 4 4 5 5 6 7 7 7 6 6 6 5 5 4 4
41 43 44 45 46 47 48 51 54 57 60 62 63 65 67 68 70 72 73 76 82 83 78 76 75 74 74 72 68 65 66 68 66 62 59 57 53 51 50 48 46 44 42 42 43 42 42 46 46 37 32 31 31 30 28 27 25 23 22 19 17 15 12 11 11 10 9 9 8 8 7 6 6 5 5 5 4 5 6 7 6 5 4 4 3 2 1 1
43 45 45 45 45 45 44 46 48 50 54 57 60 63 65 66 67 68 70 72 78 83 81 77 77 76 76 76 72 69 69 71 72 67 62 60 58 55 53 51 48 46 45 44 44 44 45 49 48 40 35 34 33 33 32 32 30 27 26 24 22 19 15 14 14 13 12 10 9 9 10 9 8 7 7 6 5 5 5 6 6 6 6 5 5 4 4 4
47 47 48 48 48 47 45 44 45 46 48 51 54 58 61 64 65 66 68 69 72 79 81 78 77 78 78 78 77 74 71 73 75 71 65 65 63 60 58 55 52 50 48 47 46 45 47 52 50 42 38 36 35 35 36 36 34 32 32 29 25 21 18 17 17 16 15 11 10 12 12 11 10 9 9 8 7 7 7 7 7 7 7 7 7 7 7 7
49 49 51 52 51 51 49 46 45 45 47 48 50 53 56 59 62 64 66 66 69 75 78 77 76 77 78 79 80 79 76 75 76 75 71 69 68 65 62 59 56 54 52 50 48 47 48 53 52 44 40 39 38 38 39 40 39 38 37 33 28 25 22 21 20 19 17 14 14 16 15 13 13 11 11 11 10 9 8 8 8 8 8 7 7 8 8 8
51 51 53 54 54 54 55 51 47 47 48 49 49 49 51 53 56 59 62 63 66 71 75 76 75 74 76 79 81 81 80 78 77 78 76 73 71 69 65 63 61 59 57 53 51 51 52 55 54 49 44 41 41 42 43 43 42 43 40 35 31 28 25 24 22 21 19 16 18 20 18 16 15 14 13 13 12 11 10 9 8 8 8 8 8 9 9 10
54 54 55 57 56 56 58 56 52 51 52 52 51 51 50 50 50 53 56 58 62 67 72 75 75 73 73 76 79 82 83 81 79 79 78 76 74 73 70 68 67 65 61 57 55 56 56 57 58 53 46 43 44 46 46 44 44 46 42 36 33 30 28 27 25 24 22 19 21 24 22 19 18 16 17 16 15 14 12 11 10 9 9 9 9 10 10 10
57 57 57 59 60 59 60 59 56 56 56 55 55 54 52 50 49 49 49 52 57 63 68 72 74 74 72 72 74 78 83 84 82 81 80 78 77 77 76 73 72 69 65 61 59 59 59 60 60 55 48 46 47 47 47 45 46 46 42 37 34 32 30 29 28 27 24 22 26 28 24 22 20 20 21 18 16 16 15 13 13 12 12 11 11 11 11 11
60 60 60 60 62 63 63 61 60 60 60 59 58 57 55 53 50 47 47 51 56 58 63 68 72 74 72 71 71 74 79 84 85 84 83 81 80 80 79 77 75 72 69 65 62 62 62 62 62 58 53 51 49 48 48 46 46 45 42 38 36 34 32 30 30 28 25 26 31 30 25 24 25 25 23 19 18 20 18 16 15 14 14 13 13 12 12 13
64 63 62 62 63 65 66 65 64 63 62 63 61 59 58 55 51 50 52 57 58 56 59 65 69 72 72 71 71 71 74 79 84 87 86 84 82 82 83 81 79 77 73 70 67 66 65 65 65 62 58 55 52 51 50 48 46 46 44 40 38 36 34 32 31 29 28 31 37 33 27 28 29 26 24 22 22 23 21 19 18 16 16 16 15 15 15 16
66 66 66 65 66 68 69 68 68 66 64 65 64 62 60 55 53 54 58 62 61 55 56 60 64 68 71 72 72 72 73 74 79 85 88 88 85 85 85 84 82 80 77 75 74 71 70 69 68 66 62 59 56 54 53 50 48 48 46 44 42 39 37 35 33 32 32 35 41 36 30 32 32 27 26 25 24 24 24 24 22 20 19 19 18 18 18 18
69 69 69 68 68 69 71 71 71 70 68 67 67 65 61 57 57 59 60 64 63 55 52 54 58 63 68 71 72 72 73 73 74 79 86 89 89 87 87 86 85 83 81 80 78 75 74 72 70 68 66 62 59 57 55 54 53 52 51 49 46 42 40 39 37 37 37 38 44 39 33 35 34 29 28 26 24 27 29 28 27 24 23 23 22 22 21 21
74 74 74 72 71 71 73 73 72 72 71 69 69 67 63 60 62 63 62 65 64 57 54 53 54 59 63 67 70 72 74 74 73 74 79 86 90 90 89 88 87 86 84 83 80 78 77 74 72 72 71 68 65 62 60 60 58 56 54 52 47 43 42 42 41 41 40 41 43 40 36 39 36 30 30 29 29 31 31 30 30 28 27 26 26 25 25 25
78 79 78 77 75 74 74 74 74 74 73 72 71 68 64 63 65 66 65 66 65 63 59 56 54 55 58 63 66 70 73 74 74 74 75 80 87 92 92 91 89 88 87 85 84 82 80 77 76 77 75 73 72 69 66 65 62 60 58 53 47 45 47 46 44 43 43 42 42 40 39 42 38 33 33 33 33 33 32 32 32 31 31 30 29 29 28 28
82 83 82 80 79 77 75 76 76 75 75 74 71 67 65 66 67 68 68 67 67 66 63 60 57 54 54 58 62 66 71 73 75 75 74 75 81 89 93 94 92 91 89 88 87 86 83 81 80 80 78 76 76 74 72 70 67 64 60 55 52 53 52 50 45 44 44 42 42 42 42 44 42 38 37 37 36 36 35 35 34 34 34 33 32 32 31 31
86 87 86 84 82 79 77 77 77 77 76 75 72 68 67 67 68 70 71 70 69 67 65 63 60 56 53 53 57 62 67 71 74 76 75 74 76 83 91 95 96 94 92 91 90 88 86 85 84 84 82 81 80 78 76 72 70 67 62 59 60 58 54 51 47 45 44 43 43 44 44 45 45 43 42 41 40 39 37 37 37 37 36 35 35 35 34 34
88 89 89 86 84 81 79 78 78 79 78 75 72 70 70 69 70 72 73 72 70 69 67 66 64 61 56 52 53 58 63 67 71 74 76 75 75 79 87 94 97 97 96 94 92 91 89 87 86 86 86 85 84 82 78 73 71 69 66 64 65 61 56 54 51 47 46 45 45 46 46 45 46 48 48 45 43 42 39 38 39 39 39 38 38 38 37 37
89 90 90 88 86 83 81 80 79 79 79 76 73 73 72 71 72 73 74 74 72 70 69 68 66 64 59 54 53 55 60 64 67 70 74 75 75 78 83 89 95 99 99 97 95 93 92 90 88 88 89 88 86 82 77 74 74 72 70 68 67 65 60 57 54 49 47 46 45 46 46 45 47 51 51 48 46 44 41 39 40 40 41 42 41 41 40 39
90 90 90 89 87 85 84 82 81 80 79 77 75 75 74 73 74 75 75 75 74 72 71 69 68 66 63 60 56 55 57 61 65 67 70 74 75 77 81 86 92 98 101 99 97 95 93 91 90 91 91 88 84 81 78 78 77 76 75 73 71 68 63 60 57 52 49 47 46 46 46 47 50 52 53 52 50 47 44 42 42 42 43 45 44 43 42 41
92 91 91 89 88 88 86 84 83 82 80 78 78 78 77 76 75 76 76 76 75 75 73 71 69 67 66 65 61 56 56 58 62 64 65 70 75 77 80 83 88 94 99 100 99 97 96 94 93 93 92 88 84 82 82 82 82 81 80 77 74 72 68 64 60 55 52 50 49 48 47 48 51 54 54 55 53 51 48 46 45 44 45 46 47 45 44 44
94 93 93 92 90 90 88 86 85 84 81 80 80 80 79 77 76 77 78 77 76 76 75 73 71 69 68 69 65 59 55 55 58 60 61 66 72 77 79 82 85 89 95 99 100 100 99 97 95 93 91 89 88 88 87 87 86 85 81 77 75 73 70 66 62 58 56 55 53 51 48 48 52 55 56 56 56 54 52 49 48 48 47 47 48 48 47 47
96 96 96 94 92 91 89 87 86 85 84 82 81 81 80 79 78 78 79 79 78 78 77 75 73 70 69 70 68 62 55 53 55 58 59 62 68 75 80 82 83 86 91 96 100 102 102 99 96 95 93 92 92 92 90 88 86 84 79 77 74 72 70 69 66 62 60 58 56 53 49 47 51 56 57 57 56 56 54 52 52 51 50 50 50 51 50 50
99 99 98 97 95 94 92 90 88 87 86 85 83 82 82 82 80 80 80 80 79 79 78 76 74 73 72 72 70 64 57 52 53 56 57 57 64 73 79 81 82 84 88 93 99 103 103 101 99 97 95 94 92 91 88 84 83 81 79 77 75 73 73 72 69 67 63 59 57 54 50 48 52 56 57 57 58 58 57 55 54 54 53 52 52 52 53 52
101 101 102 101 99 97 96 93 91 90 89 87 85 84 84 83 82 82 82 81 80 80 79 77 76 75 74 73 71 67 61 55 54 55 55 55 61 70 76 79 81 83 86 90 96 101 102 101 100 98 95 93 91 89 87 86 84 82 80 79 78 76 75 75 74 70 64 61 60 55 51 52 54 57 58 58 59 60 59 57 57 57 56 54 53 53 53 53
103 103 104 105 104 102 99 97 96 94 92 90 88 87 86 85 85 84 83 82 81 81 80 78 77 76 75 75 73 69 65 58 54 54 54 55 59 67 73 77 80 83 85 88 92 97 99 101 100 99 96 94 92 91 91 91 89 86 84 82 81 80 78 78 77 71 65 64 61 56 55 56 56 58 60 60 61 61 61 60 59 58 57 55 53 53 53 53
104 104 105 107 107 106 104 102 100 98 96 94 91 90 89 88 87 86 84 83 82 81 80 79 78 77 77 76 74 70 66 61 55 53 55 56 58 65 71 74 78 82 83 85 88 92 96 99 100 100 98 95 94 94 94 94 93 91 88 86 85 84 82 80 78 72 70 68 63 58 60 60 58 60 62 61 62 62 62 61 59 58 57 54 53 54 53 52
107 106 107 108 108 109 108 106 103 102 100 98 95 93 92 91 90 87 85 84 82 82 81 80 79 79 78 76 73 70 67 64 59 57 58 59 59 63 68 73 76 80 82 83 85 88 92 96 99 100 100 98 97 97 97 96 95 94 91 89 88 86 84 81 79 76 74 72 67 64 65 62 60 61 61 61 62 62 62 61 59 58 56 55 54 54 53 53
109 109 109 109 109 110 111 109 106 104 103 102 99 96 95 93 91 88 86 84 83 83 83 82 81 80 77 75 72 70 69 67 63 60 60 60 59 60 66 71 75 77 79 81 84 85 87 93 98 99 100 99 98 99 99 98 97 95 93 91 90 88 85 82 80 78 76 73 70 68 66 63 61 61 62 62 62 62 62 61 60 59 57 56 56 56 55 55
109 109 110 110 109 110 111 111 109 106 105 104 101 98 97 95 93 90 87 85 84 84 84 83 81 79 76 74 72 70 70 68 65 63 62 61 59 59 62 68 71 74 76 79 81 82 84 90 95 97 98 98 99 100 100 99 99 97 95 93 91 89 86 82 80 78 76 73 71 69 65 61 61 63 63 63 63 63 63 62 61 60 59 58 58 58 57 58
102 104 105 106 107 108 110 110 110 107 106 105 103 100 99 98 95 92 89 87 85 85 85 84 82 79 76 74 72 70 70 69 67 67 65 62 59 59 61 64 67 71 73 76 79 80 82 86 91 94 96 96 99 101 101 101 102 100 96 92 90 88 86 83 80 78 76 74 72 69 64 61 62 65 64 63 63 64 63 63 62 61 60 60 59 59 59 59
Wind_Direction
257 257 258 258 259 260 262 263 265 267 269 271 272 274 274 274 276 279 285 290 295 300 307 314 320 326 328 333 341 355 8 11 13 18 22 27 28 24 23 25 28 31 34 35 37 38 38 37 34 31 27 25 22 14 243 218 218 224 225 220 218 217 218 226 229 231 234 242 251 255 257 258 259 258 257 255 256 259 260 261 261 263 264 265 265 265 267 268
258 258 258 258 259 259 260 261 262 264 266 267 269 271 272 272 273 274 276 281 285 289 294 299 305 312 316 319 325 333 349 2 7 11 15 20 25 22 20 22 23 26 30 33 35 37 37 37 35 33 29 24 24 23 9 231 214 214 223 224 220 218 218 221 224 229 237 248 254 254 251 248 247 248 249 249 252 255 254 253 254 254 255 253 252 254 259 264
258 259 259 260 260 260 260 260 260 261 262 264 266 267 268 269 270 271 272 274 276 281 284 288 292 297 302 307 311 316 326 344 357 2 8 13 18 19 17 18 20 21 25 29 31 34 36 36 35 35 32 27 25 27 29 11 218 207 215 221 216 218 222 217 217 218 231 244 243 241 237 235 236 239 242 243 241 240 234 230 226 224 223 223 224 229 242 256
259 260 260 260 261 261 261 261 261 260 261 261 263 265 266 267 267 268 269 270 271 273 275 278 282 285 289 295 300 304 310 319 337 349 357 5 11 14 12 12 16 18 19 23 27 31 33 35 35 35 35 31 28 29 35 42 63 205 213 216 212 217 224 221 213 195 210 225 222 218 214 211 213 217 224 220 213 207 198 198 198 192 181 165 151 138 138 162
261 261 261 261 261 262 262 262 262 262 261 261 261 262 264 265 265 265 265 266 267 268 269 270 272 277 281 284 289 294 299 303 312 329 341 351 1 7 8 6 10 14 15 17 22 26 29 33 34 34 36 35 32 31 36 47 61 146 219 219 212 214 229 231 218 189 194 201 197 186 177 177 177 184 193 190 186 180 176 181 180 167 151 135 123 114 108 94
264 264 264 264 263 263 263 263 263 262 262 262 262 261 262 263 263 264 264 263 263 265 267 266 266 268 272 276 281 285 290 293 297 307 321 333 345 357 3 360 2 7 10 12 16 21 25 29 32 33 35 37 35 33 35 44 59 76 171 209 204 208 223 223 200 173 169 161 151 150 162 170 164 166 168 162 159 159 167 170 161 148 135 122 109 95 65 7
264 265 265 265 265 265 264 264 264 264 264 263 263 262 261 261 261 262 262 262 261 261 264 265 264 264 265 268 273 277 282 286 289 293 299 312 325 340 353 354 354 358 2 6 11 15 20 25 29 32 33 36 37 35 35 40 51 68 89 112 157 184 195 190 168 157 146 129 126 139 155 159 151 151 148 143 142 144 149 145 134 127 118 112 104 75 319 307
264 264 264 265 265 265 265 265 265 265 265 264 264 263 263 261 260 260 260 261 261 260 260 262 263 263 262 262 265 271 277 279 283 284 285 295 308 319 335 344 345 349 354 357 3 9 14 20 25 29 32 34 37 37 35 38 45 54 74 99 127 150 166 172 166 156 139 125 128 140 145 144 142 146 150 153 152 147 139 125 115 109 114 140 191 245 271 285
263 263 263 263 264 264 264 264 264 264 265 265 265 264 264 263 262 261 260 259 260 259 259 259 260 262 262 262 261 264 270 273 276 277 278 284 294 304 313 325 335 338 343 348 352 0 7 14 21 26 31 33 35 37 36 35 40 46 59 81 109 140 164 173 168 156 138 126 130 137 138 137 140 154 169 173 168 159 147 136 159 257 250 233 226 229 242 264
262 262 262 263 262 262 263 263 263 263 263 263 264 264 264 263 263 262 261 260 259 258 258 258 259 260 262 262 260 260 263 266 269 272 275 279 283 291 299 305 317 326 332 337 341 348 358 7 14 20 26 33 35 37 37 34 35 39 49 63 83 121 158 165 160 150 133 121 121 121 117 122 138 177 204 205 194 179 166 166 198 245 259 256 237 212 186 146
262 262 262 262 262 262 262 261 261 261 261 261 262 262 262 262 262 262 262 261 260 259 258 257 257 258 259 261 261 260 258 259 263 268 272 275 277 281 287 292 299 310 317 324 330 335 344 355 5 14 20 29 34 37 40 39 34 35 43 55 67 79 104 133 139 134 121 111 107 100 86 69 63 260 256 250 243 247 237 205 187 221 255 266 224 151 129 116
264 264 263 263 263 263 262 262 261 261 260 260 260 260 260 260 260 261 261 261 261 261 259 257 256 256 257 258 260 260 258 256 258 263 267 270 271 271 274 280 285 291 300 308 317 323 330 340 351 4 11 19 30 36 42 46 41 34 37 48 60 68 75 88 99 101 99 95 90 80 48 346 314 293 277 262 253 250 238 197 150 174 209 129 113 114 114 110
265 265 265 264 264 263 263 262 262 261 260 260 259 259 259 259 258 258 259 260 260 260 260 259 257 255 254 256 257 259 259 256 254 257 260 262 263 264 264 268 273 277 284 292 302 310 318 324 332 348 0 8 19 30 37 49 52 42 34 40 52 64 72 77 79 79 79 82 84 79 44 332 304 291 277 259 241 211 167 140 120 123 116 105 105 107 110 110
265 265 265 265 264 264 264 263 263 262 261 260 260 259 259 258 258 257 257 257 258 258 259 259 258 257 255 254 254 256 257 257 254 253 254 255 257 259 259 259 263 268 271 280 287 294 304 310 315 326 342 355 4 19 28 41 56 54 41 35 42 53 65 72 74 75 75 77 83 86 83 74 47 259 198 191 173 149 135 125 112 110 109 105 105 107 109 110
266 265 265 264 264 264 264 263 263 262 261 261 260 259 259 258 258 257 256 255 255 256 256 257 257 257 256 254 252 253 255 256 255 253 252 253 254 255 256 255 257 262 264 270 275 279 288 297 301 307 317 336 347 1 15 25 46 60 54 38 33 42 55 66 71 73 72 72 76 83 92 100 103 106 113 124 131 129 120 112 109 110 109 107 107 108 108 109
267 266 266 266 265 264 264 263 263 262 262 261 260 259 259 258 258 257 256 255 254 254 253 254 255 256 256 255 252 252 254 254 254 254 253 252 252 253 254 254 254 258 262 264 268 270 274 283 288 292 297 308 324 340 352 5 25 50 59 48 32 30 45 61 68 69 69 70 73 80 87 89 87 91 103 114 121 124 115 108 111 113 111 110 109 108 107 106
265 265 265 265 265 265 265 264 264 263 262 261 260 259 259 259 258 257 256 255 254 253 252 251 252 253 254 254 253 253 254 254 252 253 253 252 251 251 251 252 251 253 258 260 263 264 265 271 277 280 281 286 296 311 325 337 358 24 58 62 45 30 36 52 63 67 67 68 73 79 81 79 82 85 91 102 113 122 119 114 117 117 114 109 108 109 108 106
266 265 265 264 264 264 264 264 264 263 263 262 261 260 259 258 258 257 256 255 254 253 252 251 250 250 251 252 252 253 253 253 251 251 252 252 251 250 250 250 249 249 252 256 258 260 261 264 268 270 271 273 279 287 297 309 322 337 5 79 72 46 38 45 57 65 68 68 71 76 77 74 80 86 89 96 107 116 121 123 125 124 116 107 103 105 105 102
269 268 267 265 264 263 262 262 262 262 262 261 261 261 260 259 258 257 257 255 254 252 252 251 250 249 249 249 250 251 253 252 250 249 249 250 250 249 248 248 248 247 247 251 254 255 257 260 262 263 264 265 267 273 278 283 292 304 304 277 115 84 57 51 55 63 70 71 70 68 71 72 77 90 96 99 104 112 119 125 128 126 119 111 106 104 100 97
270 269 269 267 266 265 264 263 262 261 260 260 259 260 260 259 258 258 257 256 254 252 251 250 250 249 248 247 247 248 251 251 250 248 247 248 249 248 247 246 246 245 244 247 250 252 254 258 259 258 258 259 260 266 269 268 272 278 285 283 237 150 121 86 70 71 72 71 66 31 22 67 88 104 109 111 112 116 121 125 126 124 121 116 112 109 105 103
270 270 269 268 267 266 265 264 263 262 261 260 259 258 258 258 258 257 257 256 255 253 252 250 249 249 248 246 246 246 248 250 249 247 245 245 246 247 247 245 244 243 242 243 246 249 251 255 255 252 253 256 257 261 262 259 263 265 266 272 268 231 188 171 164 161 160 193 217 265 275 247 152 136 132 131 130 132 136 136 132 128 127 124 120 116 113 111
274 272 271 270 268 267 265 265 264 263 262 261 260 259 257 257 256 256 256 256 256 254 253 251 248 248 248 246 244 245 246 247 247 246 245 244 244 245 247 245 242 242 241 242 244 246 247 251 252 250 250 254 256 258 258 255 257 260 258 258 262 256 233 207 196 196 197 203 213 223 226 218 204 184 161 150 145 146 151 150 147 143 141 138 132 125 118 112
282 279 276 274 271 269 267 265 264 263 263 262 261 260 259 257 256 256 255 255 256 254 252 251 249 248 248 246 243 243 245 246 246 245 245 244 243 243 245 245 243 241 241 241 243 244 244 248 250 248 247 251 253 255 256 255 254 256 254 251 251 252 249 239 221 210 205 204 208 215 217 209 205 206 193 175 162 157 160 164 162 163 163 162 154 141 128 112
289 287 284 280 277 273 270 268 266 264 263 262 261 260 259 259 257 257 256 255 256 255 251 250 249 248 248 247 243 241 243 246 245 243 242 243 242 242 242 243 243 242 241 241 242 242 243 246 248 247 246 247 251 254 256 256 254 254 253 249 247 245 244 249 246 232 219 212 211 215 218 216 208 204 202 195 189 184 182 181 180 186 199 205 207 203 193 164
293 292 290 287 284 280 276 273 271 268 266 263 261 259 258 258 257 257 257 255 256 256 253 249 247 247 247 248 245 241 240 243 245 242 240 242 242 241 241 241 241 241 241 240 240 241 243 246 247 245 244 245 247 251 254 254 253 253 251 247 244 242 239 244 250 249 240 228 222 224 224 221 216 211 209 207 206 210 213 214 216 221 229 238 245 251 259 274
298 296 294 291 289 286 282 279 276 274 271 268 264 261 259 257 256 256 256 255 256 257 256 251 247 245 245 246 246 243 239 240 243 242 240 241 241 240 241 241 240 241 241 240 240 241 243 246 246 244 243 243 244 248 252 254 253 252 251 246 242 241 239 239 243 248 252 249 241 239 233 228 225 220 217 215 213 214 220 230 240 247 247 246 248 250 256 268
300 299 298 295 293 291 288 284 281 280 277 274 270 266 262 258 256 255 254 253 254 256 257 254 249 246 243 243 243 244 241 238 240 241 240 239 240 239 239 240 240 240 239 239 240 241 242 246 247 244 242 242 241 244 247 250 250 250 248 245 241 240 238 238 239 243 249 252 250 249 244 237 235 232 226 223 219 217 220 228 237 247 254 253 252 254 256 262
299 299 298 297 296 294 291 288 285 284 282 279 275 272 268 263 258 255 253 252 251 253 255 256 253 248 244 242 241 242 242 240 239 239 239 239 239 239 238 239 240 239 238 237 238 240 241 244 246 243 240 240 239 239 242 245 248 249 248 246 243 240 239 239 240 241 243 243 247 251 250 245 242 240 237 234 230 224 220 223 229 236 245 249 251 254 258 262
296 297 297 296 296 295 293 291 289 287 284 281 279 276 273 269 263 258 255 252 251 250 251 253 254 251 247 244 241 239 240 240 239 239 238 238 238 239 238 238 238 238 237 236 237 239 240 243 245 244 240 239 239 239 240 241 245 249 249 247 245 242 241 241 241 241 240 239 243 248 249 247 245 244 242 238 238 237 230 225 227 229 233 239 245 252 259 264
293 293 293 294 294 294 293 292 291 288 285 283 281 279 276 274 270 265 260 256 254 251 249 250 252 253 250 247 243 240 238 239 239 239 238 237 237 238 238 237 237 237 237 236 237 239 241 243 246 246 243 240 240 241 242 241 244 248 250 250 248 246 244 243 244 244 243 242 244 246 246 247 246 245 245 243 243 245 243 235 233 234 235 238 243 250 258 264
290 290 290 291 291 291 291 291 290 288 286 284 281 280 278 276 274 272 268 264 260 254 249 248 250 252 252 250 247 243 239 238 238 238 238 236 235 236 237 237 237 237 237 237 237 239 242 244 246 247 245 242 241 243 244 243 244 248 251 250 250 249 247 246 247 248 248 246 245 243 243 245 243 243 248 249 246 246 247 244 240 241 244 246 246 249 253 258
289 289 289 288 289 289 289 289 288 286 285 284 281 280 279 278 278 276 273 269 266 260 252 249 249 250 251 250 248 246 242 238 236 236 237 236 235 235 236 236 236 236 236 236 237 239 241 243 245 246 245 243 243 243 244 245 246 248 250 249 248 248 248 247 249 251 249 248 248 243 239 243 243 243 247 247 247 252 254 249 244 242 244 247 249 250 254 256
287 288 288 287 287 287 287 287 286 285 284 283 282 280 279 279 279 275 271 269 268 263 256 250 249 249 248 248 248 247 245 241 237 235 235 235 235 234 234 235 235 235 235 235 236 236 238 240 243 245 244 244 243 244 245 246 245 246 247 247 246 244 244 244 245 246 245 246 249 245 239 242 243 242 245 246 250 255 254 250 248 245 244 246 248 249 253 257
286 286 287 286 285 285 285 284 284 283 281 281 281 280 279 280 277 272 268 268 269 266 260 255 251 248 247 246 246 246 246 243 240 236 234 234 234 233 234 234 234 234 235 235 235 236 237 238 241 244 245 244 243 243 244 243 242 242 242 242 241 240 239 239 238 239 240 243 250 251 246 246 246 243 245 248 250 251 251 252 253 251 250 250 251 252 253 256
285 285 285 285 284 283 282 282 281 281 279 279 278 279 280 279 274 271 268 268 270 269 264 259 254 250 247 245 245 245 245 245 242 238 235 233 232 232 233 233 233 233 233 234 235 236 237 238 240 242 243 242 241 240 240 241 241 241 242 242 243 241 239 238 236 236 237 240 249 253 253 252 250 247 247 247 247 250 252 254 255 255 255 255 255 256 256 258
285 284 284 283 282 280 280 279 278 278 277 276 276 278 279 276 273 271 268 268 269 269 266 262 257 252 249 246 243 243 243 244 243 240 237 234 232 232 232 232 232 232 233 233 233 234 235 236 238 240 242 242 242 240 239 240 240 241 242 242 243 241 240 239 236 235 237 238 244 249 253 255 255 251 250 249 249 251 253 255 256 257 257 257 258 259 259 261
284 283 282 281 280 278 277 276 276 275 274 274 274 276 276 274 272 270 268 267 267 268 267 265 261 256 252 248 243 241 242 243 243 241 238 235 233 231 231 231 231 231 232 232 232 232 233 234 235 237 239 241 242 241 240 240 240 241 241 240 239 239 239 239 236 235 237 237 240 244 249 255 257 254 252 252 252 252 253 255 257 258 259 259 260 261 261 262
282 282 281 279 278 277 275 274 273 272 271 271 273 273 272 272 270 268 267 266 267 267 267 267 264 260 255 251 246 241 240 240 242 242 239 236 234 232 230 230 230 230 230 231 231 231 232 232 234 236 237 238 240 240 240 240 242 243 242 241 241 242 242 242 239 236 236 235 235 239 243 249 255 255 252 251 252 253 254 256 258 260 262 263 263 263 264 264
280 280 279 277 276 275 273 272 271 270 269 269 270 270 269 269 268 267 267 266 266 266 266 266 265 263 259 254 248 242 239 238 239 241 240 237 234 232 231 230 229 229 229 229 230 230 231 231 232 235 236 237 239 240 240 240 242 244 243 243 245 245 244 245 243 239 237 236 233 234 238 243 249 253 254 252 252 253 255 257 259 261 263 264 264 265 265 266
277 277 276 275 274 273 271 270 269 268 268 267 267 267 266 266 266 266 266 265 265 265 264 264 264 264 261 257 251 245 239 237 237 238 239 237 234 232 231 230 229 229 228 228 228 229 230 230 231 233 235 236 238 240 241 242 242 243 244 244 246 246 245 245 245 242 240 239 236 235 237 240 244 250 254 255 254 254 255 256 257 260 262 263 264 265 266 268
275 274 273 272 272 271 270 269 268 267 266 265 265 264 264 263 264 264 264 264 264 263 263 262 262 262 262 259 254 247 241 236 235 236 238 238 235 233 232 231 229 228 228 228 227 228 229 230 230 232 234 235 237 239 240 241 241 241 242 242 243 243 242 241 241 241 239 238 236 236 236 237 240 246 251 254 255 255 254 254 255 257 260 262 263 265 267 269
273 272 271 270 270 269 268 267 267 265 264 264 263 262 262 261 262 262 263 262 262 261 261 260 260 259 259 259 255 249 243 238 234 235 237 238 237 234 233 231 230 228 228 228 227 227 228 228 229 231 233 234 235 236 238 239 239 239 239 240 241 242 242 241 241 239 237 236 236 236 235 234 238 242 247 251 254 254 254 254 254 255 257 261 264 265 267 269
271 270 269 268 267 266 266 265 265 264 263 262 261 260 260 260 260 260 261 260 259 259 259 258 258 257 257 257 256 251 245 239 235 233 236 238 237 236 233 232 231 229 228 227 227 226 226 227 228 229 231 232 233 234 235 236 238 238 239 240 243 245 246 246 244 241 239 241 240 239 238 236 237 240 244 248 252 254 255 255 255 255 256 258 262 264 265 266
269 267 266 265 265 264 264 263 263 263 262 261 259 259 258 258 257 258 258 258 257 256 256 256 256 255 254 255 256 254 247 241 236 233 234 237 237 236 234 232 231 230 228 227 227 226 226 226 226 227 229 230 232 233 234 236 238 239 240 241 244 246 248 248 247 245 245 246 245 244 243 239 237 240 243 246 249 252 254 254 255 256 256 257 259 262 263 265
268 266 265 264 263 263 262 261 261 260 260 259 258 257 256 256 256 255 255 256 255 254 254 254 253 252 252 253 255 255 250 243 238 235 233 236 238 236 235 233 232 230 229 227 226 226 226 225 225 226 227 229 231 234 235 237 239 241 241 242 243 244 246 247 248 247 247 248 248 248 246 240 237 239 242 244 247 250 252 253 254 255 256 256 258 260 262 264
267 266 265 263 262 261 261 260 259 258 257 257 256 255 255 254 253 253 253 254 253 252 251 251 250 250 250 252 253 254 252 245 239 236 234 235 238 237 235 234 233 231 230 228 226 226 226 225 225 225 226 228 230 232 233 234 235 237 238 240 241 242 243 245 246 246 246 247 247 246 243 237 235 238 241 242 245 248 250 251 252 253 254 255 257 259 261 264
265 264 263 263 261 260 259 258 257 256 255 254 254 253 253 252 251 251 251 251 251 250 249 248 248 248 248 249 251 252 252 247 241 238 236 236 238 237 235 234 233 232 230 229 227 226 226 225 225 225 225 226 227 229 230 231 232 233 234 235 236 237 239 241 243 243 243 243 243 241 239 236 234 237 239 240 243 246 248 249 250 252 253 255 256 258 260 263
263 262 261 261 261 259 258 256 255 254 253 252 251 251 250 249 249 249 249 248 247 246 246 245 245 245 245 247 248 250 250 248 243 240 240 238 237 237 236 234 233 233 231 230 228 226 225 225 225 224 224 224 225 227 228 230 231 231 231 232 234 235 236 238 240 240 240 240 239 236 236 236 235 236 238 240 242 244 247 249 250 252 254 255 257 258 260 262
261 260 259 259 258 258 257 255 253 252 251 250 249 248 247 247 246 246 245 245 244 243 242 242 242 243 243 245 246 247 247 247 244 241 241 239 236 236 236 234 233 233 232 231 229 227 225 225 225 224 224 223 224 226 227 229 230 231 231 232 233 234 235 236 238 239 239 240 238 236 237 238 237 237 239 241 243 245 248 251 252 254 255 256 257 259 260 262
260 259 258 257 256 256 256 254 252 251 250 249 247 245 244 243 243 242 241 241 240 239 239 239 239 240 241 242 243 243 244 245 244 242 241 240 237 237 236 235 234 233 232 231 230 228 225 225 225 224 223 223 224 226 227 228 230 230 231 232 233 234 235 235 237 238 239 240 240 239 241 242 242 242 242 242 244 247 249 252 253 254 255 256 257 259 260 262
261 259 258 257 255 255 254 254 253 250 248 248 246 243 241 240 239 238 237 236 236 236 236 236 236 237 238 239 240 240 241 243 244 243 242 241 239 238 237 236 235 234 232 232 232 229 226 225 224 224 223 223 224 226 227 228 229 230 231 231 233 235 235 236 236 238 240 241 241 242 243 244 244 244 244 244 246 248 250 251 253 254 255 256 257 258 260 261
261 260 258 257 255 255 254 253 253 251 248 247 245 242 240 238 236 235 234 233 232 232 233 233 233 234 235 236 237 237 239 240 242 243 242 241 239 239 237 235 235 235 233 231 231 231 228 226 224 224 223 223 224 225 226 228 229 230 230 231 233 235 236 236 236 237 239 240 241 242 243 242 242 244 246 247 248 249 251 252 253 254 256 257 258 260 261 262
Height
10991 10991 10992 10992 10993 10993 10994 10994 10994 10994 10995 10995 10995 10995 10995 10996 10996 10996 10996 10996 10996 10995 10995 10995 10994 10994 10993 10993 10993 10993 10993 10992 10991 10990 10990 10989 10988 10986 10985 10985 10983 10982 10981 10980 10978 10976 10974 10972 10971 10969 10967 10965 10963 10962 10962 10963 10964 10965 10966 10967 10969 10970 10971 10972 10972 10973 10974 10975 10976 10977 10977 10978 10978 10979 10979 10979 10979 10980 10980 10981 10981 10982 10982 10982 10983 10983 10984 10985
10988 10989 10989 10990 10990 10991 10991 10992 10992 10993 10993 10993 10993 10993 10994 10994 10995 10995 10995 10995 10995 10994 10994 10994 10994 10993 10993 10992 10993 10993 10993 10993 10992 10991 10990 10990 10989 10988 10986 10985 10985 10983 10982 10981 10980 10978 10976 10974 10973 10970 10968 10966 10964 10962 10961 10962 10963 10964 10965 10967 10969 10970 10971 10972 10971 10972 10973 10974 10974 10975 10976 10977 10977 10978 10977 10977 10978 10978 10979 10979 10980 10980 10981 10981 10982 10982 10983 10983
10985 10986 10986 10987 10988 10988 10989 10989 10990 10990 10991 10991 10991 10991 10992 10992 10993 10993 10994 10994 10993 10993 10993 10993 10993 10992 10992 10992 10992 10992 10992 10993 10992 10991 10991 10990 10990 10989 10987 10986 10985 10984 10983 10982 10981 10979 10978 10976 10974 10972 10970 10967 10965 10962 10961 10961 10962 10963 10965 10966 10968 10970 10971 10971 10971 10971 10972 10973 10974 10975 10976 10976 10976 10976 10976 10976 10976 10977 10977 10978 10978 10979 10980 10980 10981 10981 10982 10982
10982 10983 10983 10984 10984 10985 10986 10986 10987 10988 10988 10989 10989 10990 10990 10990 10991 10991 10992 10992 10992 10992 10991 10992 10992 10991 10991 10991 10990 10991 10991 10992 10992 10991 10991 10991 10990 10990 10988 10987 10986 10985 10984 10983 10982 10981 10979 10977 10975 10974 10972 10969 10966 10964 10962 10961 10961 10962 10964 10965 10967 10969 10971 10971 10970 10971 10972 10973 10974 10974 10974 10975 10975 10975 10975 10975 10975 10976 10976 10977 10978 10978 10978 10979 10980 10980 10981 10982
10979 10979 10980 10981 10981 10982 10982 10983 10984 10985 10985 10986 10987 10987 10988 10988 10988 10989 10989 10990 10990 10990 10990 10990 10990 10990 10990 10989 10989 10989 10990 10991 10991 10991 10991 10991 10990 10990 10989 10988 10986 10985 10985 10984 10983 10982 10980 10978 10976 10975 10973 10971 10968 10966 10964 10962 10961 10962 10963 10965 10967 10969 10970 10970 10970 10971 10972 10972 10973 10973 10973 10974 10974 10975 10975 10975 10975 10975 10976 10976 10977 10977 10977 10978 10979 10979 10980 10981
10975 10976 10977 10977 10978 10978 10979 10980 10980 10981 10982 10983 10984 10985 10985 10986 10986 10986 10987 10987 10988 10988 10987 10988 10988 10988 10988 10988 10988 10988 10989 10989 10990 10991 10991 10990 10990 10990 10990 10988 10987 10986 10985 10984 10984 10983 10982 10980 10977 10976 10974 10972 10970 10968 10966 10964 10963 10963 10963 10964 10967 10969 10969 10969 10970 10971 10971 10972 10972 10973 10973 10974 10974 10974 10974 10974 10974 10975 10976 10976 10976 10976 10976 10977 10978 10979 10979 10980
10972 10972 10973 10973 10974 10975 10975 10976 10977 10977 10979 10979 10980 10981 10982 10983 10983 10983 10983 10984 10985 10986 10986 10985 10986 10986 10986 10987 10987 10987 10987 10988 10988 10990 10990 10990 10990 10990 10990 10989 10988 10987 10986 10985 10984 10983 10982 10981 10979 10977 10975 10973 10972 10970 10968 10966 10965 10964 10964 10965 10967 10969 10969 10969 10970 10971 10971 10971 10972 10973 10973 10973 10974 10974 10974 10974 10975 10975 10975 10975 10976 10976 10976 10977 10977 10978 10978 10979
10968 10968 10969 10969 10970 10971 10971 10972 10973 10974 10975 10976 10976 10977 10977 10979 10980 10980 10980 10981 10982 10983 10984 10983 10983 10984 10984 10985 10985 10986 10986 10986 10987 10988 10989 10990 10990 10989 10989 10989 10988 10987 10987 10985 10985 10984 10983 10982 10980 10978 10976 10975 10973 10972 10971 10969 10968 10966 10966 10966 10967 10968 10969 10970 10971 10971 10970 10971 10972 10973 10973 10973 10974 10974 10974 10974 10975 10975 10975 10975 10976 10976 10976 10976 10977 10978 10978 10978
10963 10963 10964 10965 10965 10966 10967 10968 10969 10970 10971 10972 10972 10973 10973 10974 10975 10976 10976 10977 10978 10980 10981 10981 10981 10981 10981 10982 10983 10985 10985 10984 10985 10986 10987 10989 10989 10989 10989 10989 10988 10988 10987 10986 10985 10984 10984 10983 10982 10980 10978 10976 10975 10973 10972 10971 10970 10969 10967 10967 10968 10969 10970 10970 10971 10971 10970 10971 10972 10973 10974 10974 10974 10975 10976 10976 10976 10976 10976 10976 10976 10976 10976 10977 10977 10977 10977 10978
10958 10958 10959 10960 10960 10961 10962 10963 10964 10966 10967 10968 10968 10968 10969 10970 10971 10971 10972 10973 10974 10976 10978 10978 10979 10979 10979 10979 10980 10983 10983 10982 10983 10984 10986 10988 10988 10988 10988 10988 10988 10988 10987 10986 10986 10985 10984 10984 10983 10982 10980 10978 10977 10975 10974 10973 10972 10971 10969 10968 10969 10970 10971 10971 10971 10971 10970 10971 10972 10973 10974 10974 10974 10976 10976 10976 10976 10976 10976 10976 10977 10976 10977 10977 10977 10977 10977 10977
10952 10953 10954 10954 10955 10956 10957 10958 10959 10961 10962 10963 10963 10964 10964 10966 10967 10967 10968 10969 10970 10972 10973 10975 10976 10976 10977 10975 10977 10981 10980 10979 10981 10982 10984 10986 10987 10988 10987 10987 10987 10987 10987 10986 10986 10985 10985 10984 10984 10983 10982 10981 10979 10978 10976 10975 10974 10973 10972 10971 10971 10971 10971 10971 10970 10970 10970 10970 10972 10972 10973 10974 10975 10976 10976 10976 10976 10977 10977 10977 10977 10977 10977 10977 10976 10976 10977 10977
10946 10947 10948 10949 10949 10950 10951 10952 10954 10956 10957 10958 10958 10958 10959 10961 10962 10963 10964 10964 10966 10967 10969 10971 10972 10973 10973 10972 10975 10977 10975 10976 10979 10980 10982 10984 10985 10986 10986 10986 10986 10986 10986 10985 10985 10985 10985 10984 10984 10984 10983 10982 10981 10979 10978 10977 10976 10975 10974 10973 10973 10972 10973 10972 10970 10969 10969 10970 10971 10972 10972 10973 10974 10975 10976 10976 10976 10977 10977 10978 10977 10977 10977 10977 10976 10977 10977 10977
10939 10940 10941 10942 10943 10944 10945 10946 10948 10950 10952 10952 10953 10953 10953 10955 10956 10958 10959 10960 10962 10963 10964 10966 10967 10968 10969 10970 10973 10972 10970 10973 10976 10978 10979 10980 10981 10983 10984 10984 10984 10984 10985 10984 10984 10984 10984 10984 10984 10984 10984 10983 10982 10981 10980 10979 10978 10977 10976 10975 10975 10974 10974 10972 10970 10968 10968 10969 10971 10972 10972 10973 10974 10975 10975 10976 10976 10977 10977 10978 10978 10977 10977 10977 10977 10977 10978 10978
10933 10933 10934 10935 10936 10937 10938 10939 10940 10943 10946 10946 10947 10947 10947 10949 10950 10952 10954 10955 10957 10958 10960 10961 10961 10963 10964 10967 10970 10967 10965 10969 10973 10975 10975 10976 10978 10979 10981 10982 10982 10982 10983 10983 10983 10983 10983 10983 10983 10983 10983 10983 10982 10981 10980 10980 10979 10978 10977 10977 10976 10976 10975 10972 10970 10969 10969 10970 10971 10972 10973 10973 10975 10975 10976 10976 10976 10977 10977 10977 10978 10978 10977 10977 10978 10978 10979 10979
10925 10925 10926 10927 10928 10929 10930 10931 10932 10936 10938 10940 10940 10940 10941 10942 10944 10945 10948 10950 10951 10953 10955 10956 10957 10957 10959 10963 10965 10962 10961 10966 10969 10971 10971 10973 10975 10976 10978 10980 10981 10981 10981 10982 10981 10982 10982 10982 10982 10982 10983 10983 10982 10982 10981 10980 10979 10978 10978 10978 10977 10977 10975 10973 10971 10970 10970 10972 10973 10973 10974 10975 10976 10976 10977 10977 10977 10977 10978 10978 10978 10978 10978 10978 10979 10980 10981 10981
10916 10917 10918 10919 10920 10921 10922 10923 10924 10927 10930 10932 10933 10933 10933 10935 10937 10938 10941 10943 10945 10947 10949 10951 10952 10952 10954 10958 10960 10958 10959 10962 10966 10967 10968 10970 10971 10973 10974 10976 10979 10979 10980 10980 10980 10980 10980 10980 10980 10981 10981 10982 10982 10982 10981 10981 10980 10979 10978 10978 10978 10977 10976 10973 10971 10971 10971 10973 10974 10975 10976 10977 10977 10977 10977 10977 10977 10978 10979 10979 10979 10979 10980 10980 10981 10981 10982 10982
10908 10908 10909 10910 10911 10913 10914 10914 10915 10918 10921 10924 10924 10925 10926 10927 10929 10931 10933 10936 10938 10940 10942 10945 10947 10948 10949 10952 10954 10955 10955 10958 10961 10962 10963 10966 10967 10969 10971 10973 10976 10977 10977 10978 10978 10978 10979 10979 10978 10979 10980 10980 10981 10981 10981 10981 10980 10979 10978 10978 10978 10977 10976 10974 10972 10971 10973 10975 10976 10977 10978 10978 10978 10978 10978 10978 10978 10979 10980 10980 10980 10981 10981 10981 10982 10982 10983 10983
10900 10900 10900 10901 10902 10904 10905 10905 10906 10909 10912 10915 10916 10917 10918 10919 10920 10922 10924 10927 10930 10933 10935 10939 10942 10942 10943 10946 10949 10951 10951 10953 10956 10957 10958 10961 10963 10965 10967 10969 10972 10974 10975 10975 10975 10975 10977 10977 10977 10976 10978 10979 10979 10980 10980 10980 10980 10979 10979 10978 10978 10977 10976 10975 10973 10973 10974 10976 10977 10978 10979 10979 10979 10978 10979 10979 10979 10980 10981 10981 10981 10981 10982 10982 10983 10983 10983 10984
10892 10892 10891 10892 10893 10895 10896 10896 10897 10900 10902 10905 10906 10907 10910 10911 10912 10913 10915 10918 10921 10925 10927 10931 10935 10936 10937 10940 10945 10947 10946 10947 10950 10952 10954 10955 10958 10960 10962 10965 10968 10970 10972 10972 10971 10972 10974 10975 10974 10974 10975 10977 10978 10978 10979 10979 10979 10979 10979 10978 10978 10977 10977 10975 10974 10974 10976 10977 10978 10979 10980 10980 10980 10979 10980 10980 10980 10981 10982 10982 10982 10982 10982 10983 10983 10983 10984 10984
10885 10884 10883 10884 10885 10886 10887 10887 10888 10890 10892 10895 10897 10898 10900 10901 10903 10904 10905 10907 10911 10915 10919 10924 10928 10928 10930 10934 10940 10942 10940 10941 10944 10947 10949 10950 10952 10955 10957 10961 10963 10966 10968 10967 10967 10969 10972 10972 10970 10971 10973 10974 10976 10977 10977 10978 10978 10978 10978 10978 10977 10977 10977 10976 10976 10976 10977 10977 10978 10979 10980 10981 10980 10980 10980 10980 10981 10982 10983 10983 10983 10983 10983 10983 10983 10984 10984 10984
10878 10876 10875 10876 10876 10878 10879 10878 10879 10881 10882 10885 10887 10889 10890 10891 10893 10895 10895 10897 10900 10905 10909 10916 10921 10919 10922 10928 10933 10936 10934 10934 10937 10940 10943 10945 10947 10950 10952 10955 10958 10961 10963 10963 10963 10966 10970 10968 10965 10968 10971 10972 10974 10974 10975 10976 10976 10976 10976 10977 10976 10977 10977 10977 10977 10978 10978 10978 10978 10979 10980 10980 10981 10981 10981 10981 10981 10981 10982 10983 10984 10984 10984 10984 10984 10984 10984 10985
10871 10869 10868 10868 10868 10870 10871 10871 10871 10873 10874 10875 10877 10879 10881 10882 10883 10885 10886 10885 10887 10895 10900 10906 10913 10910 10912 10921 10926 10929 10928 10926 10929 10934 10938 10940 10942 10945 10947 10950 10953 10955 10957 10958 10960 10963 10966 10962 10960 10965 10969 10970 10971 10971 10972 10973 10974 10974 10975 10975 10975 10976 10976 10977 10977 10978 10978 10979 10979 10979 10979 10980 10980 10981 10981 10981 10981 10981 10982 10983 10983 10984 10984 10984 10984 10984 10984 10985
10864 10863 10862 10861 10861 10863 10864 10863 10864 10865 10866 10866 10867 10869 10871 10872 10874 10875 10877 10875 10873 10882 10892 10896 10901 10902 10903 10911 10918 10921 10920 10918 10922 10928 10932 10934 10937 10939 10941 10944 10947 10949 10952 10955 10956 10958 10960 10956 10954 10962 10966 10967 10967 10968 10969 10971 10971 10972 10972 10974 10974 10974 10975 10976 10976 10977 10978 10978 10979 10979 10979 10980 10980 10980 10980 10980 10980 10981 10981 10982 10982 10983 10983 10984 10984 10984 10984 10985
10858 10856 10854 10854 10854 10855 10857 10856 10857 10858 10858 10858 10859 10860 10861 10863 10866 10866 10868 10867 10860 10865 10881 10887 10889 10894 10895 10899 10907 10914 10913 10911 10913 10919 10924 10927 10930 10933 10935 10938 10941 10944 10947 10950 10951 10953 10954 10950 10950 10958 10963 10964 10964 10965 10966 10967 10968 10969 10969 10971 10972 10972 10974 10974 10974 10975 10976 10977 10977 10978 10979 10979 10980 10980 10980 10979 10979 10980 10980 10981 10981 10982 10982 10983 10983 10983 10984 10984
10851 10849 10847 10847 10846 10847 10849 10849 10850 10851 10850 10850 10851 10851 10853 10853 10857 10858 10858 10860 10852 10849 10864 10876 10880 10883 10886 10888 10895 10903 10906 10903 10902 10910 10919 10921 10923 10927 10929 10932 10935 10939 10942 10944 10946 10948 10948 10944 10946 10954 10958 10960 10962 10961 10961 10962 10964 10965 10966 10967 10969 10970 10972 10972 10972 10973 10974 10975 10976 10977 10977 10978 10979 10979 10979 10978 10978 10978 10979 10979 10980 10980 10981 10982 10982 10982 10983 10983
10844 10843 10840 10839 10839 10838 10840 10842 10842 10843 10843 10843 10842 10843 10844 10845 10848 10850 10849 10852 10847 10839 10846 10861 10869 10873 10877 10880 10883 10890 10897 10895 10893 10903 10912 10913 10914 10919 10922 10925 10930 10933 10935 10939 10941 10943 10942 10938 10941 10949 10954 10956 10958 10958 10957 10957 10959 10961 10961 10963 10966 10968 10970 10970 10970 10970 10971 10973 10974 10974 10975 10976 10977 10977 10978 10977 10977 10977 10977 10978 10978 10979 10979 10980 10980 10981 10981 10982
10838 10836 10833 10832 10831 10830 10831 10834 10835 10836 10835 10835 10834 10834 10836 10837 10839 10840 10841 10844 10841 10832 10833 10844 10854 10861 10867 10870 10872 10876 10883 10887 10887 10893 10901 10903 10906 10911 10915 10919 10923 10925 10928 10933 10936 10938 10937 10933 10935 10944 10949 10951 10954 10954 10953 10952 10953 10954 10955 10959 10963 10965 10966 10967 10968 10969 10970 10971 10971 10971 10973 10974 10975 10975 10976 10976 10976 10976 10976 10977 10977 10977 10977 10978 10978 10979 10979 10980
10832 10831 10828 10825 10824 10823 10822 10824 10828 10828 10827 10826 10826 10826 10827 10828 10831 10831 10833 10836 10833 10826 10825 10830 10839 10849 10856 10859 10862 10866 10869 10876 10881 10883 10889 10896 10899 10903 10909 10912 10914 10917 10920 10926 10930 10932 10930 10927 10929 10936 10942 10946 10949 10948 10947 10947 10947 10946 10950 10956 10959 10961 10963 10965 10966 10967 10968 10970 10969 10969 10971 10972 10972 10973 10974 10974 10974 10974 10975 10975 10975 10976 10976 10976 10976 10976 10977 10978
10825 10825 10822 10818 10817 10817 10814 10815 10819 10819 10818 10818 10817 10818 10819 10820 10823 10823 10825 10827 10823 10817 10818 10821 10826 10836 10843 10847 10853 10857 10858 10864 10871 10875 10880 10888 10892 10894 10899 10903 10904 10907 10913 10919 10924 10924 10923 10922 10922 10928 10937 10941 10942 10941 10941 10944 10943 10941 10945 10951 10954 10957 10960 10961 10963 10964 10966 10968 10967 10966 10968 10970 10970 10971 10971 10971 10972 10972 10973 10973 10973 10974 10974 10975 10975 10975 10975 10976
10819 10818 10817 10813 10810 10809 10807 10807 10810 10809 10808 10810 10809 10809 10810 10812 10814 10816 10818 10817 10810 10807 10811 10814 10817 10823 10831 10836 10842 10846 10849 10853 10860 10865 10870 10877 10882 10884 10888 10893 10895 10900 10906 10912 10916 10917 10917 10917 10917 10923 10932 10935 10935 10936 10937 10940 10939 10938 10941 10947 10950 10953 10956 10957 10959 10961 10963 10965 10964 10963 10965 10967 10968 10968 10968 10969 10970 10970 10970 10971 10971 10971 10972 10973 10973 10974 10974 10975
10811 10810 10810 10807 10804 10801 10800 10800 10801 10799 10798 10800 10800 10801 10802 10804 10806 10809 10811 10805 10798 10799 10804 10807 10809 10814 10820 10826 10830 10834 10838 10842 10848 10853 10858 10866 10872 10875 10878 10884 10888 10893 10899 10905 10910 10911 10911 10913 10913 10918 10925 10928 10929 10931 10932 10935 10936 10936 10938 10943 10946 10948 10951 10954 10955 10957 10960 10960 10957 10959 10963 10964 10964 10964 10965 10967 10968 10967 10968 10968 10968 10969 10970 10971 10971 10972 10973 10973
10802 10802 10802 10801 10798 10793 10792 10792 10791 10791 10791 10790 10790 10792 10793 10796 10799 10802 10800 10793 10790 10793 10796 10799 10803 10806 10810 10815 10818 10823 10826 10830 10836 10841 10846 10853 10861 10865 10867 10872 10878 10883 10890 10896 10900 10902 10905 10907 10907 10910 10916 10920 10924 10925 10926 10930 10932 10932 10935 10939 10941 10944 10947 10950 10952 10954 10955 10953 10950 10955 10960 10959 10959 10961 10963 10964 10964 10965 10966 10966 10966 10967 10967 10968 10969 10970 10970 10971
10793 10793 10792 10792 10791 10786 10783 10782 10781 10782 10783 10780 10780 10783 10784 10789 10793 10793 10788 10782 10782 10786 10789 10793 10796 10797 10800 10803 10807 10811 10814 10818 10825 10829 10834 10841 10849 10854 10856 10862 10868 10874 10880 10885 10888 10892 10896 10897 10898 10902 10908 10913 10918 10920 10922 10925 10927 10928 10930 10933 10936 10940 10943 10946 10948 10949 10949 10946 10942 10949 10956 10954 10955 10959 10960 10961 10962 10963 10963 10962 10963 10964 10965 10966 10967 10967 10968 10969
10783 10783 10782 10782 10782 10779 10774 10772 10771 10771 10772 10772 10771 10773 10776 10782 10783 10782 10778 10774 10774 10779 10782 10785 10786 10787 10789 10792 10797 10801 10803 10807 10814 10818 10824 10830 10837 10842 10846 10852 10858 10864 10870 10874 10879 10885 10887 10890 10894 10897 10900 10905 10910 10913 10915 10916 10918 10919 10922 10925 10929 10934 10938 10940 10943 10943 10943 10941 10936 10942 10951 10950 10951 10956 10957 10958 10959 10958 10958 10959 10960 10961 10962 10963 10964 10965 10966 10967
10772 10772 10772 10771 10771 10770 10765 10763 10761 10759 10761 10763 10762 10764 10769 10773 10771 10770 10769 10766 10766 10771 10773 10775 10776 10777 10780 10784 10788 10791 10792 10797 10802 10807 10813 10819 10825 10831 10835 10841 10847 10853 10859 10865 10871 10876 10879 10885 10889 10888 10890 10895 10899 10904 10905 10905 10909 10912 10915 10919 10925 10931 10933 10934 10937 10938 10939 10938 10935 10939 10944 10943 10947 10952 10953 10954 10954 10953 10955 10956 10957 10958 10959 10960 10961 10962 10963 10964
10760 10759 10760 10759 10759 10759 10756 10753 10751 10749 10750 10751 10752 10757 10761 10761 10759 10758 10759 10758 10758 10760 10762 10764 10767 10769 10772 10775 10779 10782 10783 10786 10791 10796 10803 10808 10813 10819 10824 10830 10836 10841 10848 10855 10860 10864 10870 10877 10878 10877 10881 10885 10888 10893 10896 10897 10902 10905 10908 10915 10922 10925 10925 10927 10931 10933 10935 10936 10936 10937 10937 10936 10941 10947 10948 10948 10949 10950 10951 10952 10953 10954 10955 10957 10958 10959 10960 10961
10748 10746 10746 10747 10746 10745 10745 10743 10740 10739 10738 10739 10744 10750 10751 10749 10748 10747 10747 10749 10749 10750 10752 10754 10757 10760 10763 10766 10770 10773 10774 10777 10780 10784 10791 10798 10803 10808 10813 10817 10823 10830 10837 10842 10847 10853 10860 10865 10865 10866 10872 10875 10877 10882 10887 10890 10895 10898 10904 10911 10914 10914 10916 10920 10926 10929 10931 10935 10936 10935 10934 10932 10935 10941 10942 10943 10943 10945 10947 10948 10948 10949 10950 10953 10954 10955 10956 10957
10735 10732 10732 10734 10733 10732 10732 10730 10729 10727 10726 10729 10736 10740 10739 10739 10737 10734 10735 10738 10739 10741 10743 10745 10747 10751 10754 10757 10760 10764 10766 10768 10771 10774 10780 10787 10792 10796 10800 10804 10810 10818 10824 10829 10835 10842 10848 10853 10856 10858 10861 10863 10865 10870 10877 10885 10890 10894 10900 10903 10902 10905 10912 10916 10921 10925 10928 10931 10933 10932 10931 10930 10930 10933 10935 10937 10938 10939 10942 10943 10944 10944 10945 10947 10949 10950 10952 10953
10722 10718 10717 10718 10718 10718 10718 10717 10716 10715 10715 10720 10725 10726 10727 10727 10725 10722 10723 10727 10730 10732 10734 10736 10737 10740 10744 10748 10750 10753 10757 10760 10762 10764 10768 10775 10781 10784 10786 10791 10797 10804 10809 10816 10824 10831 10837 10843 10847 10848 10850 10853 10854 10861 10873 10882 10886 10889 10893 10895 10894 10900 10907 10910 10915 10920 10923 10926 10928 10928 10929 10929 10927 10925 10926 10931 10933 10935 10937 10939 10939 10939 10940 10941 10943 10944 10946 10947
10709 10705 10702 10702 10703 10703 10703 10703 10704 10703 10704 10709 10712 10712 10714 10715 10713 10712 10712 10716 10719 10722 10725 10727 10728 10730 10734 10738 10740 10743 10747 10751 10753 10755 10757 10762 10769 10772 10773 10778 10784 10789 10794 10803 10812 10818 10825 10832 10837 10838 10839 10843 10849 10859 10871 10877 10879 10881 10885 10888 10888 10893 10900 10904 10908 10914 10918 10921 10924 10926 10928 10929 10925 10920 10919 10923 10927 10930 10933 10935 10934 10935 10935 10935 10937 10938 10940 10942
10693 10691 10687 10687 10688 10687 10687 10688 10690 10691 10692 10696 10699 10699 10701 10703 10702 10701 10701 10705 10709 10712 10715 10717 10718 10721 10724 10726 10729 10732 10736 10741 10744 10747 10748 10752 10757 10761 10762 10766 10770 10774 10781 10792 10801 10808 10815 10823 10829 10828 10828 10837 10848 10857 10862 10864 10867 10871 10874 10878 10880 10884 10891 10895 10900 10907 10912 10916 10920 10922 10925 10925 10921 10917 10916 10917 10920 10924 10927 10929 10930 10930 10929 10929 10930 10933 10934 10936
10676 10674 10672 10672 10672 10671 10672 10673 10674 10676 10680 10684 10685 10685 10687 10690 10692 10691 10690 10693 10697 10701 10704 10707 10709 10711 10713 10714 10717 10721 10726 10732 10736 10740 10741 10742 10745 10749 10752 10754 10758 10764 10772 10781 10790 10798 10803 10810 10815 10817 10822 10834 10843 10846 10847 10850 10854 10857 10862 10868 10872 10875 10881 10888 10895 10902 10905 10909 10913 10915 10919 10920 10917 10914 10913 10912 10913 10917 10920 10923 10925 10926 10926 10924 10925 10928 10929 10930
10659 10656 10653 10656 10656 10654 10656 10659 10658 10661 10666 10669 10670 10671 10674 10677 10680 10680 10679 10681 10686 10689 10693 10696 10698 10701 10703 10703 10705 10710 10717 10722 10727 10732 10732 10732 10734 10736 10740 10743 10747 10755 10763 10770 10777 10784 10788 10796 10805 10811 10817 10825 10829 10830 10832 10837 10840 10846 10856 10865 10869 10873 10879 10884 10890 10895 10897 10902 10907 10909 10914 10917 10914 10910 10909 10908 10909 10911 10914 10917 10919 10920 10922 10922 10921 10922 10924 10925
10640 10637 10634 10637 10639 10637 10639 10643 10643 10645 10649 10652 10655 10658 10660 10663 10667 10668 10667 10669 10673 10677 10681 10685 10688 10691 10692 10692 10695 10701 10708 10714 10718 10722 10723 10724 10724 10724 10727 10732 10738 10745 10750 10757 10764 10768 10775 10786 10795 10801 10806 10810 10813 10816 10823 10830 10836 10844 10855 10862 10866 10871 10873 10876 10881 10886 10891 10897 10900 10904 10910 10913 10910 10906 10905 10905 10905 10906 10908 10911 10913 10914 10917 10918 10917 10917 10918 10920
10617 10616 10614 10616 10619 10619 10620 10625 10627 10629 10633 10636 10640 10644 10645 10648 10653 10655 10654 10657 10661 10665 10670 10674 10677 10679 10680 10682 10685 10691 10698 10705 10709 10711 10715 10717 10714 10713 10716 10722 10729 10734 10738 10744 10749 10753 10763 10775 10783 10788 10795 10802 10807 10814 10824 10831 10835 10841 10849 10855 10860 10863 10864 10867 10871 10877 10885 10891 10894 10900 10906 10908 10905 10902 10901 10901 10901 10902 10903 10906 10908 10909 10910 10913 10913 10913 10913 10915
10595 10593 10592 10593 10597 10600 10602 10606 10609 10612 10616 10620 10624 10627 10631 10634 10638 10640 10642 10645 10648 10653 10658 10662 10665 10668 10670 10672 10676 10680 10687 10694 10698 10701 10706 10707 10704 10703 10706 10712 10718 10721 10726 10732 10736 10742 10753 10764 10772 10779 10789 10797 10803 10809 10816 10819 10822 10829 10836 10842 10847 10851 10855 10857 10859 10869 10881 10884 10886 10894 10899 10899 10898 10897 10896 10896 10896 10896 10898 10900 10902 10903 10905 10907 10909 10909 10909 10910
10573 10572 10570 10569 10573 10579 10583 10585 10589 10593 10598 10603 10607 10611 10615 10619 10623 10626 10629 10633 10636 10640 10646 10651 10653 10657 10660 10662 10665 10671 10676 10683 10689 10693 10696 10697 10695 10694 10697 10702 10705 10709 10715 10720 10726 10734 10745 10754 10762 10771 10780 10788 10793 10796 10798 10801 10807 10815 10821 10826 10832 10837 10842 10844 10849 10863 10872 10872 10879 10888 10888 10889 10891 10890 10889 10890 10890 10890 10891 10893 10896 10897 10899 10902 10904 10905 10906 10906
10551 10550 10549 10546 10548 10554 10561 10564 10568 10573 10578 10585 10590 10594 10598 10603 10607 10612 10616 10620 10624 10628 10633 10639 10642 10645 10648 10650 10656 10662 10667 10673 10681 10685 10686 10687 10686 10685 10687 10692 10695 10698 10705 10711 10717 10726 10735 10743 10751 10759 10768 10777 10780 10781 10783 10788 10794 10801 10807 10812 10818 10824 10830 10834 10843 10854 10858 10861 10873 10878 10876 10879 10884 10882 10882 10883 10884 10884 10885 10887 10890 10893 10895 10898 10900 10901 10902 10902
10526 10525 10525 10526 10526 10528 10534 10541 10547 10553 10558 10564 10572 10577 10581 10586 10591 10597 10602 10606 10611 10615 10620 10626 10629 10631 10636 10641 10647 10654 10658 10663 10670 10674 10674 10674 10676 10676 10678 10682 10685 10689 10696 10702 10708 10716 10726 10733 10739 10747 10756 10765 10768 10768 10771 10776 10781 10788 10796 10802 10807 10813 10821 10828 10836 10843 10847 10854 10864 10866 10866 10873 10877 10876 10877 10878 10877 10879 10880 10882 10886 10888 10891 10894 10895 10896 10897 10897
10500 10501 10501 10503 10505 10505 10507 10515 10525 10532 10536 10543 10552 10559 10563 10569 10575 10581 10588 10593 10597 10602 10606 10612 10616 10620 10626 10632 10638 10644 10647 10652 10659 10663 10664 10665 10667 10669 10670 10673 10676 10681 10688 10693 10697 10706 10716 10721 10727 10736 10746 10754 10759 10759 10762 10766 10771 10778 10786 10793 10798 10804 10813 10821 10828 10834 10839 10848 10855 10858 10862 10870 10872 10871 10871 10871 10872 10874 10876 10878 10881 10882 10885 10887 10888 10890 10891 10891
10474 10476 10478 10480 10483 10484 10485 10490 10500 10510 10515 10521 10532 10541 10545 10551 10559 10566 10573 10579 10583 10586 10592 10599 10605 10610 10616 10622 10628 10633 10637 10643 10650 10653 10654 10657 10659 10661 10662 10665 10669 10674 10680 10685 10689 10697 10705 10710 10717 10726 10735 10746 10750 10750 10753 10758 10761 10766 10775 10784 10790 10796 10806 10815 10822 10828 10834 10842 10847 10851 10860 10868 10867 10863 10863 10865 10867 10868 10870 10872 10874 10875 10878 10880 10881 10883 10884 10884
10449 10452 10455 10458 10462 10464 10465 10468 10476 10486 10495 10502 10511 10521 10528 10534 10541 10550 10558 10564 10568 10572 10578 10586 10593 10600 10605 10611 10617 10623 10628 10634 10639 10641 10644 10648 10651 10651 10654 10658 10661 10664 10671 10676 10680 10687 10694 10700 10708 10715 10726 10737 10739 10739 10744 10746 10746 10754 10768 10779 10786 10792 10799 10807 10814 10821 10828 10833 10838 10846 10857 10862 10857 10854 10857 10860 10861 10862 10864 10866 10867 10869 10871 10873 10874 10876 10877 10877